Flag for United Kingdom Past Weather in Kingston upon Hull, England, United Kingdom — Yesterday and Last 2 Weeks

Now
68 °F

Scattered clouds.


Feels Like: 68 °F
Forecast: 54 / 64 °F
Wind: 13 mph from West

Location: Humberside

Current Time: Jun 26, 2016 at 2:56:39 PM

Latest Report: Jun 26, 2016 at 2:20 PM


Visibility: N/A

Pressure: 29.98 "Hg

Humidity: 60%

Dew Point: 54 °F

Location of Kingston upon HullLocation

Past Weather in Kingston upon Hull — Graph

°F

Kingston upon Hull Temperature Yesterday

Maximum temperature yesterday: 66 °F (at 1:20 PM)
Minimum temperature yesterday: 52 °F (at 3:20 AM)
Average temperature yesterday: 58 °F

High & Low Weather Summary for the Past Weeks

 TemperatureHumidityPressure
High72 °F (Jun 21, 2:20 PM)100% (Jun 11, 8:20 PM)30.21 "Hg (Jun 11, 8:20 PM)
Low46 °F (Jun 19, 4:20 AM)50% (Jun 21, 3:50 PM)29.36 "Hg (Jun 14, 4:50 PM)
Average59 °F86%29.83 "Hg
* Reported Jun 11 1:20 PM — Jun 26 1:20 PM, Kingston upon Hull, Weather by CustomWeather, © 2016

Note: Actual official high and low records may vary slightly from our data, if they occured in-between our weather recording intervals... More about our weather records

Advertising

Kingston upon Hull Weather History for the Previous 24 Hours

Scroll right to see more
 ConditionsComfort  
Time TempWeatherWind HumidityBarometerVisibility
1:20 PM
Sun, Jun 26
68 °FScattered clouds.8 mph53%29.98 "Hg5 mi
12:50 PM66 °FBroken clouds.7 mph60%29.98 "Hg5 mi
12:20 PM66 °FBroken clouds.7 mph60%29.98 "Hg5 mi
11:50 AM64 °FBroken clouds.9 mph64%29.98 "Hg5 mi
11:20 AM64 °FBroken clouds.10 mph64%30.01 "Hg5 mi
10:50 AM63 °FBroken clouds.10 mph68%29.98 "Hg5 mi
10:20 AM61 °FScattered clouds.12 mph72%29.98 "Hg5 mi
9:50 AM61 °FScattered clouds.12 mph77%30.01 "Hg5 mi
9:20 AM59 °FScattered clouds.9 mph82%30.01 "Hg5 mi
8:50 AM59 °FScattered clouds.9 mph82%30.01 "Hg5 mi
8:20 AM57 °FBroken clouds.7 mph88%30.01 "Hg5 mi
7:50 AM57 °FBroken clouds.7 mph88%30.01 "Hg5 mi
7:20 AM55 °FScattered clouds.10 mph94%30.01 "Hg5 mi
6:50 AM55 °FScattered clouds.8 mph94%30.01 "Hg5 mi
6:20 AM55 °FScattered clouds.7 mph94%30.01 "HgN/A
5:50 AM54 °FScattered clouds.5 mph100%29.98 "HgN/A
5:20 AM54 °FHaze.5 mph100%29.98 "Hg3 mi
4:50 AM54 °FHaze.6 mph94%29.98 "Hg3 mi
4:20 AM54 °FPartly cloudy.2 mph100%29.98 "Hg3 mi
3:50 AM55 °FPartly cloudy.5 mph94%30.01 "HgN/A
3:20 AM55 °FFog.5 mph94%30.01 "Hg3 mi
2:50 AM54 °FFog.No wind100%30.01 "Hg3 mi
2:20 AM55 °FFog.2 mph94%30.01 "Hg3 mi
1:50 AM55 °FPartly cloudy.No wind94%30.01 "Hg4 mi
1:20 AM55 °FLight rain. Passing clouds.No wind94%30.01 "Hg4 mi
12:50 AM55 °FLight rain. Overcast.No wind100%30.01 "Hg5 mi
12:20 AM55 °FLight rain. Passing clouds.3 mph100%30.01 "Hg5 mi
11:50 PM
Sat, Jun 25
55 °FPassing clouds.6 mph94%30.01 "HgN/A
11:20 PM55 °FPassing clouds.3 mph94%30.01 "HgN/A
10:50 PM55 °FCool.6 mph94%30.01 "HgN/A
10:20 PM55 °FCool.5 mph94%30.01 "HgN/A
9:50 PM55 °FCool.3 mph94%30.01 "HgN/A
9:20 PM57 °FCool.5 mph94%30.01 "HgN/A
8:50 PM57 °FScattered clouds.3 mph94%30.01 "HgN/A
8:20 PM59 °FScattered clouds.7 mph88%30.01 "HgN/A
7:50 PM59 °FScattered clouds.5 mph88%30.01 "HgN/A
7:20 PM59 °FScattered clouds.6 mph88%30.01 "HgN/A
6:50 PM55 °FRain showers. Scattered clouds.5 mph88%30.01 "HgN/A
6:20 PM57 °FSprinkles. Scattered clouds.No wind77%30.01 "HgN/A
5:50 PM57 °FStrong thunderstorms. Scattered clouds.14 mph82%30.01 "Hg2 mi
5:20 PM63 °FThundershowers. Scattered clouds.8 mph77%29.98 "HgN/A
4:50 PM64 °FScattered showers. Scattered clouds.10 mph68%29.98 "HgN/A
4:20 PM66 °FScattered showers. Scattered clouds.6 mph60%29.98 "HgN/A
3:50 PM64 °FScattered showers. Scattered clouds.7 mph68%29.98 "HgN/A
3:20 PM64 °FScattered clouds.6 mph73%29.98 "HgN/A
2:50 PM64 °FTornado. Scattered clouds.7 mph68%29.98 "HgN/A
2:20 PM64 °FSprinkles. Scattered clouds.9 mph68%29.98 "HgN/A
Weather by CustomWeather, © 2016

See weather overviewHow to use our weather pages